This demonstration page uses our WeatherBlox Daily Observations layout. Learn more.

Hourly Observations for October 13, 2017

Temp ( °F °C ) Dew Point ( °F °C ) Humidity (%) Winds ( mph kmh ) Pressure ( in mb ) Visibility ( mi km ) Precip ( " mm )
12:54 am 00:54 Cloudy 59 15 53 11.7 81 81 ENE 7 11 29.95 1014 10 16.0934 0 0
1:54 am 01:54 Mostly Cloudy 59 15 53 11.7 81 81 E 10 17 29.95 1014 10 16.0934 0 0
2:54 am 02:54 Mostly Cloudy 57 13.9 53 11.7 87 87 N 7 11 29.96 1015 10 16.0934 0 0
3:54 am 03:54 Cloudy 58 14.4 53 11.7 84 84 NNE 13 20 29.97 1015 10 16.0934 0 0
4:54 am 04:54 Cloudy 57 13.9 51 10.6 81 81 N 10 17 29.98 1015 10 16.0934 0 0
5:54 am 05:54 Cloudy 55 12.8 49 9.4 80 80 NNE 13 20 30 1016 10 16.0934 0 0
6:54 am 06:54 Cloudy 55 12.8 48 8.9 77 77 NNE 10 17 30 1016 10 16.0934 0 0
7:54 am 07:54 Cloudy 55 12.8 48 8.9 77 77 N 13 20 30.02 1017 10 16.0934 0 0
8:54 am 08:54 Cloudy 54 12.2 47 8.3 77 77 N 18 30 30.04 1017 10 16.0934 0 0
9:54 am 09:54 Cloudy 55 12.8 48 8.9 77 77 undefined N/A 30.04 1017 10 16.0934 0 0
10:54 am 10:54 Cloudy 57 13.9 51 10.6 81 81 NNE 16 26 30.05 1018 10 16.0934 0 0
11:16 am 11:16 Cloudy 57 13.9 51 10.6 81 81 NNE 14 22 30.06 1018 10 16.0934 0 0
11:54 am 11:54 Cloudy 57 13.9 50 10 78 78 NNE 16 26 30.04 1017 10 16.0934 0 0
12:54 pm 12:54 Cloudy 57 13.9 49 9.4 74 74 NNE 16 26 30.05 1018 10 16.0934 0 0
1:54 pm 13:54 Cloudy 57 13.9 50 10 78 78 NE 12 19 30.04 1017 10 16.0934 0 0
2:54 pm 14:54 Cloudy 58 14.4 50 10 75 75 NNE 12 19 30.02 1017 10 16.0934 0 0
3:54 pm 15:54 Cloudy 58 14.4 51 10.6 78 78 NE 12 19 30.02 1017 10 16.0934 0 0
4:54 pm 16:54 Cloudy 59 15 51 10.6 75 75 NE 12 19 30.02 1017 10 16.0934 0 0
5:54 pm 17:54 Cloudy 59 15 52 11.1 78 78 NE 9 15 30.03 1017 10 16.0934 0 0
6:47 pm 18:47 Cloudy 59 15 52 11.1 78 78 NNE 7 11 30.03 1017 10 16.0934 0 0
6:54 pm 18:54 Cloudy 58 14.4 51 10.6 78 78 NE 10 17 30.03 1017 10 16.0934 0 0
7:54 pm 19:54 Cloudy 58 14.4 51 10.6 78 78 NNE 9 15 30.03 1017 10 16.0934 0 0
8:54 pm 20:54 Cloudy 58 14.4 51 10.6 78 78 ENE 10 17 30.04 1017 10 16.0934 0 0
9:39 pm 21:39 Cloudy 58 14.4 51 10.6 78 78 NNE 8 13 30.06 1018 10 16.0934 0 0
9:54 pm 21:54 Cloudy 57 13.9 51 10.6 81 81 NE 6 9 30.05 1018 10 16.0934 0 0
10:54 pm 22:54 Cloudy 57 13.9 51 10.6 81 81 ENE 7 11 30.04 1017 10 16.0934 0 0
11:54 pm 23:54 Cloudy 57 13.9 52 11.1 83 83 ENE 7 11 30.04 1017 10 16.0934 0 0

Powered by AerisWeather